Simultaneous Nadir Overpasses (SNOs) Predictions

Prediction of SNOs between METOP-A and NOAA-19 Satellite Orbit:

Table of predicted SNOs for the next 14.0 days since TLE Epoch: 12/5/2020
Index Date (METOP-A) Time (METOP-A) Lat,Lon (METOP-A) SZA (METOP-A ) Date (NOAA-19) Time (NOAA-19) Lat,Lon (NOAA-19) SZA (NOAA-19 ) Distance(km) Time Diff (sec)
1 12/07/2020 10:58:29 80.78, 28.20 103.71 12/07/2020 10:57:25 80.79, 28.26 103.70 1.04 64
2 12/07/2020 11:49:10 -80.78,-164.48 76.29 12/07/2020 11:48:29 -80.79,-164.56 76.30 1.42 41
3 12/07/2020 12:39:50 80.80, 3.06 103.74 12/07/2020 12:39:25 80.78, 2.94 103.71 2.75 25
4 12/07/2020 13:30:32 -80.77, 170.03 76.30 12/07/2020 13:30:29 -80.78, 170.11 76.29 1.88 3
5 12/07/2020 14:21:12 80.79, -22.42 103.73 12/07/2020 14:21:25 80.78, -22.39 103.72 1.12 13
6 12/07/2020 15:11:53 -80.79, 144.89 76.27 12/07/2020 15:12:29 -80.78, 144.78 76.28 1.99 36
7 12/07/2020 16:02:34 80.78, -47.91 103.72 12/07/2020 16:03:26 80.78, -48.08 103.73 3.08 52
8 12/07/2020 16:53:15 -80.78, 119.41 76.28 12/07/2020 16:54:29 -80.78, 119.45 76.27 0.88 74
9 12/18/2020 12:11:51 80.79, 9.78 104.39 12/18/2020 12:10:36 80.80, 9.64 104.38 2.40 75
10 12/18/2020 13:02:32 -80.80, 177.20 75.60 12/18/2020 13:01:37 -80.80, 177.05 75.62 2.79 55
11 12/18/2020 13:53:13 80.79, -15.71 104.38 12/18/2020 13:52:36 80.80, -15.68 104.38 1.44 37
12 12/18/2020 14:43:54 -80.79, 151.72 75.62 12/18/2020 14:43:37 -80.79, 151.72 75.62 0.29 17
13 12/18/2020 15:34:34 80.80, -40.86 104.40 12/18/2020 15:34:36 80.79, -41.01 104.39 2.73 2
14 12/18/2020 16:25:16 -80.78, 126.23 75.63 12/18/2020 16:25:37 -80.79, 126.38 75.61 2.93 21
15 12/18/2020 17:15:56 80.79, -66.34 104.38 12/18/2020 17:16:36 80.79, -66.33 104.39 0.32 40



Historial Predications of SNOs between METOP-A and NOAA-19
